Location: Lafig�re
(44.4503°N, 4.0357°E)
Time: 14:49:55
(UTC+00:00)

Vanguard 2 Rocket - Pass Details

Date: 19 June 2021
Orbit: 555 x 3325 km, 32.9° (Epoch: 28 July)

Event Time Altitude Azimuth Distance (km) Brightness Sun altitude
Rises 01:25:39 0° 273° (W) 5,817 10.8 -18.3°
Reaches altitude 10° 01:32:01 10° 255° (WSW) 4,155 9.9 -17.9°
Enters shadow 01:34:25 13° 244° (WSW) 3,625 9.5 -17.7°
